Back to catalog

CZ-3C DEB

AliveGTO
NORAD 40202·DEBRIS·🇨🇳 China

Launched Feb 24, 2012 from Xichang Satellite Launch Center

Loading…

TLE

StaleSource: Space-Track

Epoch: Sep 12, 2026, 17:54 UTC

1 40202U 12008M   26255.74592217  .00000098  00000-0  45263-3 0  9996
2 40202  19.6484 159.7821 7129396 258.2799  20.6512  2.36572919113021

Track CZ-3C DEB in real time with AllMySat

Download on the App Store